Jewel Of The Seas — C6FW9 — position and weather

sailwx.info

Track history (hours):
 
Tides and Currents Weather Stations Pressure Air Temp Water Temp Dewpoint Dewpoint Depression Visibility Wind Speed Wind Dir Waves Ship Positions

Jewel Of The Seas

Operator: Royal Caribbean Cruises Ltd

Last reported at 2017-Jul-22 17:00 UTC. Time now 2017-Jul-22 18:33 UTC.
Position N 40°04' E 013°29'.

Length 290 m; draft 8.6 m.

Type: Passenger vessel. MMSI: 311583000.

Date/timePositionNaut miles runAvg speedWind from/ knotsBaromVisibWave heightAir tempDewpointWater temp
2017-Jul-22 17:00N 40°04' E 013°29'1016.6
2017-Jul-22 16:22N 39°57' E 013°38'616.6
2017-Jul-22 16:00N 39°52' E 013°44'816.9
2017-Jul-22 15:31N 39°47' E 013°52'917.0
2017-Jul-22 15:01N 39°41' E 013°60'2016.9
2017-Jul-22 13:50N 39°26' E 014°16'616.8
2017-Jul-22 13:30N 39°22' E 014°21'1416.6
2017-Jul-22 12:40N 39°12' E 014°34'616.9
2017-Jul-22 12:18N 39°07' E 014°40'1117.0
2017-Jul-22 11:38N 38°59' E 014°50'217.0
2017-Jul-22 11:30N 38°57' E 014°52'917.2
2017-Jul-22 11:00N 38°51' E 014°60'817.0
2017-Jul-22 10:30N 38°45' E 015°07'917.0
2017-Jul-22 10:00N 38°39' E 015°15'917.0
2017-Jul-22 09:30N 38°33' E 015°22'917.0
2017-Jul-22 09:00N 38°27' E 015°30'916.9
2017-Jul-22 08:30N 38°21' E 015°38'711.5
2017-Jul-22 07:54N 38°14' E 015°38'614.8
2017-Jul-22 07:29N 38°08' E 015°36'916.3
2017-Jul-22 06:57N 37°60' E 015°35'815.0
2017-Jul-22 06:25N 37°53' E 015°40'6016.6
2017-Jul-22 02:47N 37°46' E 016°56'616.4
2017-Jul-22 02:25N 37°45' E 017°03'716.3
2017-Jul-22 02:00N 37°45' E 017°12'816.7
2017-Jul-22 01:30N 37°44' E 017°22'1516.5
2017-Jul-22 00:35N 37°43' E 017°41'216.1
2017-Jul-22 00:28N 37°43' E 017°44'1516.5
2017-Jul-21 23:34N 37°43' E 018°03'117.0
2017-Jul-21 23:30N 37°43' E 018°04'917.0
2017-Jul-21 23:00N 37°42' E 018°15'8217.3
2017-Jul-21 18:16N 37°38' E 019°58'4016.7
2017-Jul-21 15:52N 37°35' E 020°48'138 5.9
2017-Jul-20 16:25N 37°36' E 023°43'716.6
2017-Jul-20 16:00N 37°42' E 023°40'816.7
2017-Jul-20 15:30N 37°50' E 023°37'612.1
2017-Jul-20 15:01N 37°56' E 023°37'0 0.2
2017-Jul-20 14:00N 37°56' E 023°37'0 0.0
2017-Jul-20 13:30N 37°56' E 023°37'0 0.0
2017-Jul-20 13:00N 37°56' E 023°37'0 0.0
2017-Jul-20 12:30N 37°56' E 023°37'0 0.0
2017-Jul-20 12:00N 37°56' E 023°37'0 0.0
2017-Jul-20 11:30N 37°56' E 023°37'0 0.0
2017-Jul-20 11:00N 37°56' E 023°37'0 0.0
2017-Jul-20 10:30N 37°56' E 023°37'0 0.0
2017-Jul-20 10:00N 37°56' E 023°37'0 0.0
2017-Jul-20 09:30N 37°56' E 023°37'0 0.0
2017-Jul-20 09:00N 37°56' E 023°37'0 0.0
2017-Jul-20 08:27N 37°56' E 023°37'0 0.0
2017-Jul-20 08:00N 37°56' E 023°37'0 0.0
2017-Jul-20 07:30N 37°56' E 023°37'0 0.0
2017-Jul-20 07:00N 37°56' E 023°37'0 0.0
2017-Jul-20 06:30N 37°56' E 023°37'0 0.0
2017-Jul-20 06:00N 37°56' E 023°37'0 0.0
2017-Jul-20 05:30N 37°56' E 023°37'0 0.0
2017-Jul-20 05:00N 37°56' E 023°37'0 0.0
2017-Jul-20 04:30N 37°56' E 023°37'0 0.0
2017-Jul-20 04:00N 37°56' E 023°37'0 0.0
2017-Jul-20 03:30N 37°56' E 023°37'0 0.0
2017-Jul-20 03:00N 37°56' E 023°37'0 0.0
2017-Jul-20 02:30N 37°56' E 023°37'0 0.0
2017-Jul-20 02:00N 37°56' E 023°37'0 0.0
2017-Jul-20 01:30N 37°56' E 023°37'2 3.8
2017-Jul-20 01:00N 37°54' E 023°37'4 8.7
2017-Jul-20 00:30N 37°50' E 023°39'611.7
2017-Jul-20 00:00N 37°45' E 023°42'612.0
2017-Jul-19 23:30N 37°40' E 023°45'612.0
2017-Jul-19 23:00N 37°34' E 023°47'711.8
2017-Jul-19 22:26N 37°27' E 023°48'512.0
2017-Jul-19 22:00N 37°22' E 023°48'4910.0
2017-Jul-19 17:06N 37°13' E 024°49'112.4
2017-Jul-19 17:00N 37°14' E 024°50'612.4
2017-Jul-19 16:30N 37°17' E 024°57'612.5
2017-Jul-19 16:00N 37°20' E 025°04'611.9
2017-Jul-19 15:30N 37°25' E 025°08'612.7
2017-Jul-19 15:00N 37°28' E 025°15'3 6.6
2017-Jul-19 14:30N 37°27' E 025°19'0 0.2
2017-Jul-19 14:00N 37°27' E 025°19'0 0.0
2017-Jul-19 13:30N 37°27' E 025°19'0 0.0
2017-Jul-19 13:00N 37°27' E 025°19'0 0.0
2017-Jul-19 12:30N 37°27' E 025°19'0 0.0
2017-Jul-19 12:00N 37°27' E 025°19'0 0.0
2017-Jul-19 11:30N 37°27' E 025°19'0 0.0
2017-Jul-19 11:00N 37°27' E 025°19'0 0.0
2017-Jul-19 10:30N 37°27' E 025°19'0 0.0
2017-Jul-19 10:00N 37°27' E 025°19'0 0.0
2017-Jul-19 09:30N 37°27' E 025°19'0 0.0
2017-Jul-19 09:00N 37°27' E 025°19'0 0.0
2017-Jul-19 08:27N 37°27' E 025°19'0 0.0
2017-Jul-19 07:57N 37°27' E 025°19'0 0.0
2017-Jul-19 07:30N 37°27' E 025°19'0 0.0
2017-Jul-19 07:00N 37°27' E 025°19'0 0.0
2017-Jul-19 06:30N 37°27' E 025°19'0 0.0
2017-Jul-19 06:00N 37°27' E 025°19'0 0.0
2017-Jul-19 05:30N 37°27' E 025°19'0 0.0
2017-Jul-19 05:00N 37°27' E 025°19'0 0.2
2017-Jul-19 04:30N 37°27' E 025°19'3 6.4
2017-Jul-19 04:00N 37°28' E 025°15'4 8.4
2017-Jul-19 03:31N 37°27' E 025°10'4 7.8
2017-Jul-19 03:00N 37°24' E 025°07'6 8.2
2017-Jul-19 02:18N 37°18' E 025°04'2 8.4
2017-Jul-19 02:00N 37°16' E 025°03'4 8.3
2017-Jul-19 01:31N 37°12' E 025°01'4 8.4
2017-Jul-19 01:00N 37°08' E 024°59'42510.3
2017-Jul-17 07:33N 37°44' E 016°05'217.5
2017-Jul-17 07:27N 37°44' E 016°03'918.0
2017-Jul-17 06:59N 37°46' E 015°53'817.9
2017-Jul-17 06:30N 37°49' E 015°43'917.4
2017-Jul-17 06:01N 37°56' E 015°35'918.7
2017-Jul-17 05:30N 38°05' E 015°34'816.9
2017-Jul-17 05:00N 38°14' E 015°36'713.2
2017-Jul-17 04:30N 38°20' E 015°39'1223.3
2017-Jul-17 04:01N 38°28' E 015°29'1223.1
2017-Jul-17 03:30N 38°36' E 015°18'1223.1
2017-Jul-17 03:00N 38°44' E 015°07'1122.7
2017-Jul-17 02:30N 38°51' E 014°56'227 7.3
2017-Jul-15 19:27N 41°21' E 011°13'152 7.5
2017-Jul-14 23:01N 39°05' E 009°42'0 7.1
2017-Jul-14 23:00N 39°05' E 009°42'4 7.0
2017-Jul-14 22:30N 39°03' E 009°38'3 6.1
2017-Jul-14 22:00N 39°00' E 009°36'211.7 330 / 201009.010.8 24.7 26.0
2017-Jul-14 21:52N 38°59' E 009°34'3 6.4
2017-Jul-14 21:19N 38°58' E 009°30'2 7.0
2017-Jul-14 21:00N 38°59' E 009°27'3 6.8
2017-Jul-14 20:29N 39°00' E 009°23'4 7.4
2017-Jul-14 20:00N 39°02' E 009°19'4 7.2
2017-Jul-14 19:30N 39°05' E 009°16'4 7.5
2017-Jul-14 19:00N 39°07' E 009°12'4 7.2
2017-Jul-14 18:30N 39°09' E 009°08'3 6.9
2017-Jul-14 18:00N 39°12' E 009°07'0 0.4
2017-Jul-14 17:28N 39°13' E 009°06'0 0.0
2017-Jul-14 16:58N 39°13' E 009°06'0 0.0
2017-Jul-14 16:28N 39°13' E 009°06'0 0.0
2017-Jul-14 15:58N 39°13' E 009°06'0 0.0
2017-Jul-14 15:28N 39°13' E 009°06'0 0.0
2017-Jul-14 14:58N 39°13' E 009°06'0 0.0
2017-Jul-14 14:28N 39°13' E 009°06'0 0.0
2017-Jul-14 13:58N 39°13' E 009°06'0 0.0
2017-Jul-14 13:28N 39°13' E 009°06'0 0.0
2017-Jul-14 12:58N 39°13' E 009°06'0 0.0
2017-Jul-14 12:28N 39°13' E 009°06'0 0.0
2017-Jul-14 11:58N 39°13' E 009°06'0 0.0
2017-Jul-14 11:28N 39°13' E 009°06'0 0.0
2017-Jul-14 10:58N 39°13' E 009°06'0 0.0
2017-Jul-14 10:28N 39°13' E 009°06'0 0.0
2017-Jul-14 09:58N 39°13' E 009°06'1 1.5
2017-Jul-14 09:30N 39°12' E 009°06'713.4
2017-Jul-14 09:00N 39°05' E 009°07'917.5
2017-Jul-14 08:30N 38°57' E 009°02'918.2
2017-Jul-14 08:00N 38°51' E 008°54'22217.9
2017-Jul-13 19:34N 38°56' E 004°09'117.9
2017-Jul-13 19:30N 38°57' E 004°07'917.8
2017-Jul-13 19:00N 38°58' E 003°56'917.7
2017-Jul-13 18:30N 38°59' E 003°45'917.5
2017-Jul-13 18:00N 39°00' E 003°34'917.3
2017-Jul-13 17:30N 39°01' E 003°23'917.4
2017-Jul-13 17:00N 39°03' E 003°12'917.7
2017-Jul-13 16:30N 39°04' E 003°00'816.6
2017-Jul-13 16:00N 39°08' E 002°51'917.7
2017-Jul-13 15:30N 39°16' E 002°45'917.4
2017-Jul-13 15:00N 39°23' E 002°40'817.2
2017-Jul-13 14:30N 39°32' E 002°39'1 2.8
2017-Jul-13 14:00N 39°33' E 002°38'0 0.0
2017-Jul-13 13:30N 39°33' E 002°38'0 0.0
2017-Jul-13 13:00N 39°33' E 002°38'0 0.0
2017-Jul-13 12:30N 39°33' E 002°38'0 0.0
2017-Jul-13 12:00N 39°33' E 002°38'0 0.0
2017-Jul-13 11:30N 39°33' E 002°38'0 0.0
2017-Jul-13 11:00N 39°33' E 002°38'0 0.0
2017-Jul-13 10:30N 39°33' E 002°38'0 0.0
2017-Jul-13 10:00N 39°33' E 002°38'0 0.0
2017-Jul-13 09:30N 39°33' E 002°38'0 0.0
2017-Jul-13 09:00N 39°33' E 002°38'0 0.0
2017-Jul-13 08:30N 39°33' E 002°38'0 0.0
2017-Jul-13 08:00N 39°33' E 002°38'0 0.0
2017-Jul-13 07:30N 39°33' E 002°38'0 0.0
2017-Jul-13 07:00N 39°33' E 002°38'0 0.0
2017-Jul-13 06:30N 39°33' E 002°38'0 0.0
2017-Jul-13 05:58N 39°33' E 002°38'0 0.0
2017-Jul-13 05:28N 39°33' E 002°38'1 1.4
2017-Jul-13 05:00N 39°33' E 002°39'510.2
2017-Jul-13 04:30N 39°28' E 002°36'713.2
2017-Jul-13 04:00N 39°24' E 002°30'612.0
2017-Jul-13 03:30N 39°27' E 002°23'612.2
2017-Jul-13 02:59N 39°31' E 002°17'611.7
2017-Jul-13 02:30N 39°37' E 002°14'712.4
2017-Jul-13 01:57N 39°43' E 002°14'612.4
2017-Jul-13 01:30N 39°49' E 002°14'612.6
2017-Jul-13 01:00N 39°55' E 002°13'612.6
2017-Jul-13 00:30N 40°02' E 002°13'612.6
2017-Jul-13 00:00N 40°08' E 002°13'612.6
2017-Jul-12 23:30N 40°14' E 002°13'612.7
2017-Jul-12 23:00N 40°21' E 002°13'612.7
2017-Jul-12 22:30N 40°27' E 002°12'612.6
2017-Jul-12 22:00N 40°33' E 002°12'612.7
2017-Jul-12 21:30N 40°40' E 002°12'612.6
2017-Jul-12 21:00N 40°46' E 002°12'612.5
2017-Jul-12 20:30N 40°52' E 002°12'612.4
2017-Jul-12 20:00N 40°58' E 002°11'612.5
2017-Jul-12 19:30N 41°05' E 002°11'612.7
2017-Jul-12 19:00N 41°11' E 002°10'612.6
2017-Jul-12 18:30N 41°17' E 002°11'4 8.5
2017-Jul-12 18:01N 41°21' E 002°11'0 0.0
2017-Jul-12 17:21N 41°21' E 002°11'0 0.0
2017-Jul-12 17:00N 41°21' E 002°11'  
Track history (hours):
 
Tides and Currents Weather Stations Pressure Air Temp Water Temp Dewpoint Dewpoint Depression Visibility Wind Speed Wind Dir Waves Ship Positions

Jewel Of The Seas

Operator: Royal Caribbean Cruises Ltd

Last reported at 2017-Jul-22 17:00 UTC. Time now 2017-Jul-22 18:33 UTC.
Position N 40°04' E 013°29'.

Length 290 m; draft 8.6 m.

Type: Passenger vessel. MMSI: 311583000.

Date/timePositionNaut miles runAvg speedWind from/ knotsBaromVisibWave heightAir tempDewpointWater temp
2017-Jul-22 17:00N 40°04' E 013°29'1016.6
2017-Jul-22 16:22N 39°57' E 013°38'616.6
2017-Jul-22 16:00N 39°52' E 013°44'816.9
2017-Jul-22 15:31N 39°47' E 013°52'917.0
2017-Jul-22 15:01N 39°41' E 013°60'2016.9
2017-Jul-22 13:50N 39°26' E 014°16'616.8
2017-Jul-22 13:30N 39°22' E 014°21'1416.6
2017-Jul-22 12:40N 39°12' E 014°34'616.9
2017-Jul-22 12:18N 39°07' E 014°40'1117.0
2017-Jul-22 11:38N 38°59' E 014°50'217.0
2017-Jul-22 11:30N 38°57' E 014°52'917.2
2017-Jul-22 11:00N 38°51' E 014°60'817.0
2017-Jul-22 10:30N 38°45' E 015°07'917.0
2017-Jul-22 10:00N 38°39' E 015°15'917.0
2017-Jul-22 09:30N 38°33' E 015°22'917.0
2017-Jul-22 09:00N 38°27' E 015°30'916.9
2017-Jul-22 08:30N 38°21' E 015°38'711.5
2017-Jul-22 07:54N 38°14' E 015°38'614.8
2017-Jul-22 07:29N 38°08' E 015°36'916.3
2017-Jul-22 06:57N 37°60' E 015°35'815.0
2017-Jul-22 06:25N 37°53' E 015°40'6016.6
2017-Jul-22 02:47N 37°46' E 016°56'616.4
2017-Jul-22 02:25N 37°45' E 017°03'716.3
2017-Jul-22 02:00N 37°45' E 017°12'816.7
2017-Jul-22 01:30N 37°44' E 017°22'1516.5
2017-Jul-22 00:35N 37°43' E 017°41'216.1
2017-Jul-22 00:28N 37°43' E 017°44'1516.5
2017-Jul-21 23:34N 37°43' E 018°03'117.0
2017-Jul-21 23:30N 37°43' E 018°04'917.0
2017-Jul-21 23:00N 37°42' E 018°15'8217.3
2017-Jul-21 18:16N 37°38' E 019°58'4016.7
2017-Jul-21 15:52N 37°35' E 020°48'138 5.9
2017-Jul-20 16:25N 37°36' E 023°43'716.6
2017-Jul-20 16:00N 37°42' E 023°40'816.7
2017-Jul-20 15:30N 37°50' E 023°37'612.1
2017-Jul-20 15:01N 37°56' E 023°37'0 0.2
2017-Jul-20 14:00N 37°56' E 023°37'0 0.0
2017-Jul-20 13:30N 37°56' E 023°37'0 0.0
2017-Jul-20 13:00N 37°56' E 023°37'0 0.0
2017-Jul-20 12:30N 37°56' E 023°37'0 0.0
2017-Jul-20 12:00N 37°56' E 023°37'0 0.0
2017-Jul-20 11:30N 37°56' E 023°37'0 0.0
2017-Jul-20 11:00N 37°56' E 023°37'0 0.0
2017-Jul-20 10:30N 37°56' E 023°37'0 0.0
2017-Jul-20 10:00N 37°56' E 023°37'0 0.0
2017-Jul-20 09:30N 37°56' E 023°37'0 0.0
2017-Jul-20 09:00N 37°56' E 023°37'0 0.0
2017-Jul-20 08:27N 37°56' E 023°37'0 0.0
2017-Jul-20 08:00N 37°56' E 023°37'0 0.0
2017-Jul-20 07:30N 37°56' E 023°37'0 0.0
2017-Jul-20 07:00N 37°56' E 023°37'0 0.0
2017-Jul-20 06:30N 37°56' E 023°37'0 0.0
2017-Jul-20 06:00N 37°56' E 023°37'0 0.0
2017-Jul-20 05:30N 37°56' E 023°37'0 0.0
2017-Jul-20 05:00N 37°56' E 023°37'0 0.0
2017-Jul-20 04:30N 37°56' E 023°37'0 0.0
2017-Jul-20 04:00N 37°56' E 023°37'0 0.0
2017-Jul-20 03:30N 37°56' E 023°37'0 0.0
2017-Jul-20 03:00N 37°56' E 023°37'0 0.0
2017-Jul-20 02:30N 37°56' E 023°37'0 0.0
2017-Jul-20 02:00N 37°56' E 023°37'0 0.0
2017-Jul-20 01:30N 37°56' E 023°37'2 3.8
2017-Jul-20 01:00N 37°54' E 023°37'4 8.7
2017-Jul-20 00:30N 37°50' E 023°39'611.7
2017-Jul-20 00:00N 37°45' E 023°42'612.0
2017-Jul-19 23:30N 37°40' E 023°45'612.0
2017-Jul-19 23:00N 37°34' E 023°47'711.8
2017-Jul-19 22:26N 37°27' E 023°48'512.0
2017-Jul-19 22:00N 37°22' E 023°48'4910.0
2017-Jul-19 17:06N 37°13' E 024°49'112.4
2017-Jul-19 17:00N 37°14' E 024°50'612.4
2017-Jul-19 16:30N 37°17' E 024°57'612.5
2017-Jul-19 16:00N 37°20' E 025°04'611.9
2017-Jul-19 15:30N 37°25' E 025°08'612.7
2017-Jul-19 15:00N 37°28' E 025°15'3 6.6
2017-Jul-19 14:30N 37°27' E 025°19'0 0.2
2017-Jul-19 14:00N 37°27' E 025°19'0 0.0
2017-Jul-19 13:30N 37°27' E 025°19'0 0.0
2017-Jul-19 13:00N 37°27' E 025°19'0 0.0
2017-Jul-19 12:30N 37°27' E 025°19'0 0.0
2017-Jul-19 12:00N 37°27' E 025°19'0 0.0
2017-Jul-19 11:30N 37°27' E 025°19'0 0.0
2017-Jul-19 11:00N 37°27' E 025°19'0 0.0
2017-Jul-19 10:30N 37°27' E 025°19'0 0.0
2017-Jul-19 10:00N 37°27' E 025°19'0 0.0
2017-Jul-19 09:30N 37°27' E 025°19'0 0.0
2017-Jul-19 09:00N 37°27' E 025°19'0 0.0
2017-Jul-19 08:27N 37°27' E 025°19'0 0.0
2017-Jul-19 07:57N 37°27' E 025°19'0 0.0
2017-Jul-19 07:30N 37°27' E 025°19'0 0.0
2017-Jul-19 07:00N 37°27' E 025°19'0 0.0
2017-Jul-19 06:30N 37°27' E 025°19'0 0.0
2017-Jul-19 06:00N 37°27' E 025°19'0 0.0
2017-Jul-19 05:30N 37°27' E 025°19'0 0.0
2017-Jul-19 05:00N 37°27' E 025°19'0 0.2
2017-Jul-19 04:30N 37°27' E 025°19'3 6.4
2017-Jul-19 04:00N 37°28' E 025°15'4 8.4
2017-Jul-19 03:31N 37°27' E 025°10'4 7.8
2017-Jul-19 03:00N 37°24' E 025°07'6 8.2
2017-Jul-19 02:18N 37°18' E 025°04'2 8.4
2017-Jul-19 02:00N 37°16' E 025°03'4 8.3
2017-Jul-19 01:31N 37°12' E 025°01'4 8.4
2017-Jul-19 01:00N 37°08' E 024°59'42510.3
2017-Jul-17 07:33N 37°44' E 016°05'217.5
2017-Jul-17 07:27N 37°44' E 016°03'918.0
2017-Jul-17 06:59N 37°46' E 015°53'817.9
2017-Jul-17 06:30N 37°49' E 015°43'917.4
2017-Jul-17 06:01N 37°56' E 015°35'918.7
2017-Jul-17 05:30N 38°05' E 015°34'816.9
2017-Jul-17 05:00N 38°14' E 015°36'713.2
2017-Jul-17 04:30N 38°20' E 015°39'1223.3
2017-Jul-17 04:01N 38°28' E 015°29'1223.1
2017-Jul-17 03:30N 38°36' E 015°18'1223.1
2017-Jul-17 03:00N 38°44' E 015°07'1122.7
2017-Jul-17 02:30N 38°51' E 014°56'227 7.3
2017-Jul-15 19:27N 41°21' E 011°13'152 7.5
2017-Jul-14 23:01N 39°05' E 009°42'0 7.1
2017-Jul-14 23:00N 39°05' E 009°42'4 7.0
2017-Jul-14 22:30N 39°03' E 009°38'3 6.1
2017-Jul-14 22:00N 39°00' E 009°36'211.7 330 / 201009.010.8 24.7 26.0
2017-Jul-14 21:52N 38°59' E 009°34'3 6.4
2017-Jul-14 21:19N 38°58' E 009°30'2 7.0
2017-Jul-14 21:00N 38°59' E 009°27'3 6.8
2017-Jul-14 20:29N 39°00' E 009°23'4 7.4
2017-Jul-14 20:00N 39°02' E 009°19'4 7.2
2017-Jul-14 19:30N 39°05' E 009°16'4 7.5
2017-Jul-14 19:00N 39°07' E 009°12'4 7.2
2017-Jul-14 18:30N 39°09' E 009°08'3 6.9
2017-Jul-14 18:00N 39°12' E 009°07'0 0.4
2017-Jul-14 17:28N 39°13' E 009°06'0 0.0
2017-Jul-14 16:58N 39°13' E 009°06'0 0.0
2017-Jul-14 16:28N 39°13' E 009°06'0 0.0
2017-Jul-14 15:58N 39°13' E 009°06'0 0.0
2017-Jul-14 15:28N 39°13' E 009°06'0 0.0
2017-Jul-14 14:58N 39°13' E 009°06'0 0.0
2017-Jul-14 14:28N 39°13' E 009°06'0 0.0
2017-Jul-14 13:58N 39°13' E 009°06'0 0.0
2017-Jul-14 13:28N 39°13' E 009°06'0 0.0
2017-Jul-14 12:58N 39°13' E 009°06'0 0.0
2017-Jul-14 12:28N 39°13' E 009°06'0 0.0
2017-Jul-14 11:58N 39°13' E 009°06'0 0.0
2017-Jul-14 11:28N 39°13' E 009°06'0 0.0
2017-Jul-14 10:58N 39°13' E 009°06'0 0.0
2017-Jul-14 10:28N 39°13' E 009°06'0 0.0
2017-Jul-14 09:58N 39°13' E 009°06'1 1.5
2017-Jul-14 09:30N 39°12' E 009°06'713.4
2017-Jul-14 09:00N 39°05' E 009°07'917.5
2017-Jul-14 08:30N 38°57' E 009°02'918.2
2017-Jul-14 08:00N 38°51' E 008°54'22217.9
2017-Jul-13 19:34N 38°56' E 004°09'117.9
2017-Jul-13 19:30N 38°57' E 004°07'917.8
2017-Jul-13 19:00N 38°58' E 003°56'917.7
2017-Jul-13 18:30N 38°59' E 003°45'917.5
2017-Jul-13 18:00N 39°00' E 003°34'917.3
2017-Jul-13 17:30N 39°01' E 003°23'917.4
2017-Jul-13 17:00N 39°03' E 003°12'917.7
2017-Jul-13 16:30N 39°04' E 003°00'816.6
2017-Jul-13 16:00N 39°08' E 002°51'917.7
2017-Jul-13 15:30N 39°16' E 002°45'917.4
2017-Jul-13 15:00N 39°23' E 002°40'817.2
2017-Jul-13 14:30N 39°32' E 002°39'1 2.8
2017-Jul-13 14:00N 39°33' E 002°38'0 0.0
2017-Jul-13 13:30N 39°33' E 002°38'0 0.0
2017-Jul-13 13:00N 39°33' E 002°38'0 0.0
2017-Jul-13 12:30N 39°33' E 002°38'0 0.0
2017-Jul-13 12:00N 39°33' E 002°38'0 0.0
2017-Jul-13 11:30N 39°33' E 002°38'0 0.0
2017-Jul-13 11:00N 39°33' E 002°38'0 0.0
2017-Jul-13 10:30N 39°33' E 002°38'0 0.0
2017-Jul-13 10:00N 39°33' E 002°38'0 0.0
2017-Jul-13 09:30N 39°33' E 002°38'0 0.0
2017-Jul-13 09:00N 39°33' E 002°38'0 0.0
2017-Jul-13 08:30N 39°33' E 002°38'0 0.0
2017-Jul-13 08:00N 39°33' E 002°38'0 0.0
2017-Jul-13 07:30N 39°33' E 002°38'0 0.0
2017-Jul-13 07:00N 39°33' E 002°38'0 0.0
2017-Jul-13 06:30N 39°33' E 002°38'0 0.0
2017-Jul-13 05:58N 39°33' E 002°38'0 0.0
2017-Jul-13 05:28N 39°33' E 002°38'1 1.4
2017-Jul-13 05:00N 39°33' E 002°39'510.2
2017-Jul-13 04:30N 39°28' E 002°36'713.2
2017-Jul-13 04:00N 39°24' E 002°30'612.0
2017-Jul-13 03:30N 39°27' E 002°23'612.2
2017-Jul-13 02:59N 39°31' E 002°17'611.7
2017-Jul-13 02:30N 39°37' E 002°14'712.4
2017-Jul-13 01:57N 39°43' E 002°14'612.4
2017-Jul-13 01:30N 39°49' E 002°14'612.6
2017-Jul-13 01:00N 39°55' E 002°13'612.6
2017-Jul-13 00:30N 40°02' E 002°13'612.6
2017-Jul-13 00:00N 40°08' E 002°13'612.6
2017-Jul-12 23:30N 40°14' E 002°13'612.7
2017-Jul-12 23:00N 40°21' E 002°13'612.7
2017-Jul-12 22:30N 40°27' E 002°12'612.6
2017-Jul-12 22:00N 40°33' E 002°12'612.7
2017-Jul-12 21:30N 40°40' E 002°12'612.6
2017-Jul-12 21:00N 40°46' E 002°12'612.5
2017-Jul-12 20:30N 40°52' E 002°12'612.4
2017-Jul-12 20:00N 40°58' E 002°11'612.5
2017-Jul-12 19:30N 41°05' E 002°11'612.7
2017-Jul-12 19:00N 41°11' E 002°10'612.6
2017-Jul-12 18:30N 41°17' E 002°11'4 8.5
2017-Jul-12 18:01N 41°21' E 002°11'0 0.0
2017-Jul-12 17:21N 41°21' E 002°11'0 0.0
2017-Jul-12 17:00N 41°21' E 002°11'  

Dump ship's entire track history